Malaga, Spain

4:23 AM CEST on May 29, 2017 (GMT +0200)
Malaga

Weather History for LEMG - November, 2011

Change the Weather History Date:

Thursday, November 3, 2011

  Actual Average Record
Temperature  
Mean Temperature 65 °F -  
Max Temperature 68 °F 64 °F 83 °F (2013)
Min Temperature 62 °F 50 °F 50 °F (1996)
Growing Degree Days 15 (Base 50)    
Moisture  
Dew Point 61 °F    
Average Humidity 83    
Maximum Humidity 88    
Minimum Humidity 69    
Precipitation  
Precipitation 0.08 in 0.15 in - ()
Sea Level Pressure  
Sea Level Pressure 29.69 in    
Wind  
Wind Speed 9 mph ()    
Max Wind Speed 22 mph    
Max Gust Speed 21 mph    
Visibility 4.8 miles    
Events Rain    
Averages and records for this station are not official NWS values.
T = Trace of Precipitation, MM = Missing Value Source: Averaged Metar Reports

Daily Weather History Graph

Daily Weather History Graph

Search for Another Location

Airport or City:

Trip Planner

Search our weather history database for the weather conditions in past years. The results will help you decide how hot, cold, wet, or windy it might be!

Date:

Astronomy

Nov. 03, 2011 Rise Set
Actual Time 7:42 AM CET 6:19 PM CET
Civil Twilight 7:16 AM CET 6:46 PM CET
Nautical Twilight 6:45 AM CET 7:16 PM CET
Astronomical Twilight 6:15 AM CET 7:47 PM CET
Moon 2:26 PM CET (11/3) 12:51 AM CET (11/3)
Length of Visible Light 11h 30m
Length of Day
10h 36m
First Quarter, 58% of the Moon is Illuminated
Nov 3
First Quarter
Nov 10
Full
Nov 18
Last Quarter
Nov 25
New
Dec 2
First Quarter

Hourly Weather History & Observations

Time (CET) Temp. Dew Point Humidity Pressure Visibility Wind Dir Wind Speed Gust Speed Precip Events Conditions
12:00 AM 66.2 °F 62.6 °F 88% 29.77 in 4.3 mi SSW 5.8 mph - N/A Rain Light Rain
12:08 AM 66.2 °F 62.6 °F 88% 29.77 in 3.1 mi Variable 6.9 mph - N/A Rain Rain
12:30 AM 66.2 °F 62.6 °F 88% 29.77 in 4.3 mi ESE 11.5 mph - N/A Rain Light Rain
12:32 AM 66.2 °F 62.6 °F 88% 29.77 in 3.1 mi SSE 8.1 mph - N/A Rain Rain
1:00 AM 66 °F 63 °F 87% 29.80 in 3 mi ESE 10.4 mph - - Rain Rain
1:00 AM 66.2 °F 62.6 °F 88% 29.77 in 3.1 mi ESE 10.4 mph - N/A Rain Rain
1:30 AM 66.2 °F 62.6 °F 88% 29.77 in 3.1 mi ESE 15.0 mph - N/A Rain Rain
2:00 AM 66.2 °F 62.6 °F 88% 29.74 in 4.3 mi East 15.0 mph - N/A Rain Light Rain
2:30 AM 66.2 °F 60.8 °F 83% 29.71 in 4.3 mi East 19.6 mph - N/A   Mostly Cloudy
3:00 AM 66.2 °F 62.6 °F 88% 29.71 in 4.3 mi East 15.0 mph - N/A Rain Light Rain
3:30 AM 66.2 °F 62.6 °F 88% 29.71 in 4.3 mi ESE 17.3 mph - N/A Rain Light Rain
3:46 AM 66.2 °F 62.6 °F 88% 29.71 in 3.1 mi ESE 11.5 mph - N/A Rain Rain
4:00 AM 66.2 °F 62.6 °F 88% 29.68 in 3.1 mi East 13.8 mph - N/A Rain Rain
4:23 AM 66.2 °F 62.6 °F 88% 29.68 in 4.3 mi East 17.3 mph - N/A   Mostly Cloudy
4:30 AM 66.2 °F 62.6 °F 88% 29.68 in 4.3 mi East 15.0 mph - N/A   Mostly Cloudy
5:00 AM 66.2 °F 60.8 °F 83% 29.68 in 3.7 mi East 17.3 mph - N/A Rain Rain
5:10 AM 64.4 °F 60.8 °F 88% 29.68 in 2.5 mi East 15.0 mph - N/A Rain Heavy Rain
5:30 AM 64.4 °F 60.8 °F 88% 29.65 in 2.5 mi ESE 21.9 mph - N/A Rain Heavy Rain
6:00 AM 64.4 °F 60.8 °F 88% 29.65 in 2.5 mi East 18.4 mph - N/A Rain Heavy Rain
6:30 AM 64.4 °F 60.8 °F 88% 29.68 in 1.9 mi ESE 16.1 mph - N/A Rain Heavy Rain
6:40 AM 64.4 °F 60.8 °F 88% 29.68 in 1.6 mi SE 8.1 mph 19.6 mph N/A Rain Heavy Rain
7:00 AM 64 °F 61 °F 88% 29.71 in 2 mi ESE 3.5 mph - - Rain Rain
7:00 AM 64.4 °F 60.8 °F 88% 29.68 in 1.9 mi ESE 3.5 mph - N/A Rain Heavy Rain
7:05 AM 64.4 °F 60.8 °F 88% 29.68 in 3.1 mi SSE 5.8 mph - N/A Rain Rain
7:30 AM 64.4 °F 60.8 °F 88% 29.68 in 4.3 mi NE 1.2 mph - N/A   Scattered Clouds
8:00 AM 64.4 °F 60.8 °F 88% 29.68 in 4.3 mi Variable 1.2 mph - N/A   Mostly Cloudy
8:30 AM 64.4 °F 60.8 °F 88% 29.68 in 4.3 mi South 9.2 mph - N/A   Mostly Cloudy
9:00 AM 64.4 °F 60.8 °F 88% 29.68 in 4.3 mi South 8.1 mph - N/A   Mostly Cloudy
9:30 AM 64.4 °F 60.8 °F 88% 29.71 in 3.1 mi South 9.2 mph - N/A Rain Light Rain
10:00 AM 64.4 °F 60.8 °F 88% 29.71 in 6.2 mi South 11.5 mph - N/A   Mostly Cloudy
10:30 AM 66.2 °F 60.8 °F 83% 29.71 in 6.2 mi South 11.5 mph - N/A   Mostly Cloudy
11:00 AM 66.2 °F 60.8 °F 83% 29.71 in 6.2 mi SE 10.4 mph - N/A   Mostly Cloudy
11:30 AM 66.2 °F 60.8 °F 83% 29.71 in 6.2 mi SE 8.1 mph - N/A   Mostly Cloudy
11:42 AM 66.2 °F 60.8 °F 83% 29.71 in - SE 9.2 mph - N/A Rain Rain
12:00 PM 66.2 °F 60.8 °F 83% 29.71 in - South 8.1 mph - N/A Rain Rain
12:30 PM 66.2 °F 62.6 °F 88% 29.71 in 4.3 mi NW 4.6 mph - N/A   Mostly Cloudy
1:00 PM 67 °F 61 °F 76% 29.73 in 7 mi 1.2 mph - -   Partly Cloudy
1:00 PM 66.2 °F 60.8 °F 83% 29.68 in 6.2 mi Variable 1.2 mph - N/A   Mostly Cloudy
1:30 PM 68.0 °F 60.8 °F 78% 29.68 in 6.2 mi Variable 2.3 mph - N/A   Mostly Cloudy
2:00 PM 68.0 °F 60.8 °F 78% 29.68 in 5.0 mi Variable 1.2 mph - N/A   Mostly Cloudy
2:30 PM 68.0 °F 60.8 °F 78% 29.68 in 3.1 mi South 4.6 mph - N/A Rain Light Rain
3:00 PM 68.0 °F 60.8 °F 78% 29.65 in 6.2 mi Variable 2.3 mph - N/A   Mostly Cloudy
3:30 PM 68.0 °F 59.0 °F 73% 29.65 in 6.2 mi Variable 2.3 mph - N/A   Mostly Cloudy
4:00 PM 68.0 °F 59.0 °F 73% 29.65 in 6.2 mi South 3.5 mph - N/A   Mostly Cloudy
4:30 PM 68.0 °F 59.0 °F 73% 29.65 in 6.2 mi South 3.5 mph - N/A   Mostly Cloudy
5:00 PM 66.2 °F 59.0 °F 78% 29.65 in 6.2 mi South 3.5 mph - N/A   Mostly Cloudy
5:30 PM 66.2 °F 59.0 °F 78% 29.65 in 6.2 mi SSW 9.2 mph - N/A   Mostly Cloudy
6:00 PM 66.2 °F 57.2 °F 73% 29.65 in 6.2 mi SSW 6.9 mph - N/A   Mostly Cloudy
6:30 PM 66.2 °F 57.2 °F 73% 29.65 in 6.2 mi SSW 8.1 mph - N/A   Mostly Cloudy
7:00 PM 66 °F 58 °F 69% 29.67 in 9 mi South 10.4 mph - -   Partly Cloudy
7:00 PM 66.2 °F 59.0 °F 78% 29.65 in 6.2 mi South 10.4 mph - N/A   Scattered Clouds
7:30 PM 66.2 °F 59.0 °F 78% 29.65 in 6.2 mi South 8.1 mph - N/A   Scattered Clouds
8:00 PM 66.2 °F 59.0 °F 78% 29.65 in 6.2 mi SSW 3.5 mph - N/A   Scattered Clouds
8:30 PM 64.4 °F 59.0 °F 83% 29.65 in 6.2 mi SW 1.2 mph - N/A   Scattered Clouds
9:00 PM 64.4 °F 57.2 °F 77% 29.65 in 6.2 mi Calm Calm - N/A   Scattered Clouds
9:30 PM 64.4 °F 59.0 °F 83% 29.65 in 6.2 mi South 6.9 mph - N/A   Scattered Clouds
9:33 PM 64.4 °F 60.8 °F 88% 29.65 in 3.7 mi South 8.1 mph 20.7 mph N/A Rain Rain
9:54 PM 64.4 °F 59.0 °F 83% 29.65 in 6.2 mi South 9.2 mph - N/A Rain Light Rain
10:00 PM 64.4 °F 59.0 °F 83% 29.65 in 6.2 mi South 9.2 mph - N/A Rain Light Rain
10:30 PM 62.6 °F 59.0 °F 88% 29.65 in 6.2 mi South 9.2 mph - N/A   Scattered Clouds
11:00 PM 62.6 °F 57.2 °F 82% 29.65 in 6.2 mi SSW 9.2 mph - N/A   Scattered Clouds
11:30 PM 62.6 °F 57.2 °F 82% 29.62 in 6.2 mi South 5.8 mph - N/A   Scattered Clouds